Regional Weather Roundup
Issued by NWS Albany, NY

Home | Current Version | Previous Version | Text Only | Print | Product List | Glossary On
Versions: 1 2 3 4 5 6 7 8 9 10 11 12 13 14 15 16 17 18 19 20 21 22 23 24 25 26 27
000
ASUS41 KALY 230410
RWRALY

NEW YORK STATE HOURLY WEATHER ROUNDUP
NATIONAL WEATHER SERVICE ALBANY NY
1200 AM EDT WED AUG 23 2017

NOTE: "FAIR" INDICATES FEW OR NO CLOUDS BELOW 12,000 FEET WITH NO
SIGNIFICANT WEATHER AND/OR NO OBSTRUCTIONS TO VISIBILITY.

NYZ032-033-038>043-046>054-057>066-NYZ062>081-082-084-230500-
EAST


CITY           SKY/WX    TMP DP  RH WIND       PRES   REMARKS
ALBANY         CLOUDY    72  68  87 S5        29.69F
GLENS FALLS    MOCLDY    69  67  93 S9        29.67S
POUGHKEEPSIE   CLOUDY    73  71  93 S5        29.73S
NEWBURGH       CLOUDY    73  73 100 SW8       29.77F
WHITE PLAINS   TSTM      75  70  84 SW9G18    29.80R
ISLIP          LGT RAIN  78  76  93 SW20G32   29.80R
NEW YORK CITY  TSTM      76  72  87 SW20G29   29.80R
CENTRAL PARK   RAIN      74  71  91 W12G22    29.84R FOG
$$

NYZ005>009-017-018-044>046-055-056-230500-
CENTRAL


CITY           SKY/WX    TMP DP  RH WIND       PRES   REMARKS
FULTON         CLOUDY    67  62  84 W12       29.72R
SYRACUSE       CLOUDY    67  66  97 W14       29.71R
ROME           CLOUDY    69  66  90 W8        29.71R
ELMIRA         CLOUDY    69  57  65 W9        29.77R
BINGHAMTON     CLEAR     65  65 100 SW9       29.78S
$$

NYZ026>034-041>043-087-230500-
NORTH


CITY           SKY/WX    TMP DP  RH WIND       PRES   REMARKS
WATERTOWN      MOCLDY    67  63  87 W15G23    29.67R
FORT DRUM      NOT AVBL
OGDENSBURG     MOCLDY    70  65  82 W14G21    29.61R
MASSENA        CLOUDY    71  70  96 SW9       29.57S
SARANAC LAKE   LGT RAIN  66  66 100 SW9       29.65S
PLATTSBURGH    CLOUDY    70  65  84 S6        29.58S
$$

NYZ001>004-010>016-019>021-085-230500-
WEST


CITY           SKY/WX    TMP DP  RH WIND       PRES   REMARKS
NIAGARA FALLS  PTCLDY    65  53  65 W9        29.80R
BUFFALO        MOCLDY    64  56  75 W6        29.81R
DUNKIRK        CLOUDY    67  57  70 W5        29.84R
JAMESTOWN      CLOUDY    61  57  87 NW8       29.88R
WELLSVILLE     LGT RAIN  65  61  87 NW16G28   29.86R FOG
ROCHESTER      MOCLDY    66  58  75 W9        29.77R
PENN YAN       CLOUDY    67  61  81 W9        29.78R
$$

             KEY
       WCI = WIND CHILL INDEX
       VSB = VISIBILITY
       HX  = HEAT INDEX
$$




USA.gov is the U.S. government's official web portal to all federal, state and local government web resources and services.